Millington, TN

3:37 PM CDT on April 25, 2017 (GMT -0500)
Millington Municipal

Weather History for KNQA - September, 2013

Change the Weather History Date:

Sunday, September 15, 2013

  Actual Average Record
Temperature  
Mean Temperature 69 °F -  
Max Temperature 87 °F 83 °F 96 °F (2010)
Min Temperature 51 °F 63 °F 51 °F (2006)
Cooling Degree Days 4    
Growing Degree Days 19 (Base 50)    
Moisture  
Dew Point 55 °F    
Average Humidity 75    
Maximum Humidity 100    
Minimum Humidity 31    
Precipitation  
Precipitation 0.00 in - - ()
Sea Level Pressure  
Sea Level Pressure 30.07 in    
Wind  
Wind Speed 1 mph (South)    
Max Wind Speed 9 mph    
Max Gust Speed -    
Visibility 10 miles    
Events      
Averages and records for this station are not official NWS values.
T = Trace of Precipitation, MM = Missing Value Source: NWS Daily Summary

Daily Weather History Graph

Daily Weather History Graph

Search for Another Location

Airport or City:

Trip Planner

Search our weather history database for the weather conditions in past years. The results will help you decide how hot, cold, wet, or windy it might be!

Date:

Astronomy

Sep. 15, 2013 Rise Set
Actual Time 6:42 AM CDT 7:06 PM CDT
Civil Twilight 6:16 AM CDT 7:31 PM CDT
Nautical Twilight 5:47 AM CDT 8:01 PM CDT
Astronomical Twilight 5:16 AM CDT 8:31 PM CDT
Moon 4:27 PM CDT (9/15) 2:27 AM CDT (9/15)
Length of Visible Light 13h 14m
Length of Day
12h 23m
Waxing Gibbous, 82% of the Moon is Illuminated
Sep 15
Waxing Gibbous
Sep 19
Full
Sep 26
Last Quarter
Oct 4
New
Oct 11
First Quarter

Hourly Weather History & Observations

Time (CDT) Temp. Heat Index Dew Point Humidity Pressure Visibility Wind Dir Wind Speed Gust Speed Precip Events Conditions
12:55 AM 57.2 °F - 53.6 °F 88% 30.07 in 10.0 mi Calm Calm - N/A   Clear
1:55 AM 55.4 °F - 53.6 °F 94% 30.07 in 10.0 mi Calm Calm - N/A   Clear
2:55 AM 55.4 °F - 53.6 °F 94% 30.06 in 10.0 mi Calm Calm - N/A   Clear
3:15 AM 55.4 °F - 53.6 °F 94% 30.06 in 10.0 mi Calm Calm - N/A   Clear
3:35 AM 53.6 °F - 53.6 °F 100% 30.06 in 10.0 mi Calm Calm - N/A   Clear
3:55 AM 53.6 °F - 53.6 °F 100% 30.06 in 7.0 mi Calm Calm - N/A   Clear
4:15 AM 53.6 °F - 51.8 °F 94% 30.06 in 9.0 mi Calm Calm - N/A   Clear
4:35 AM 53.6 °F - 51.8 °F 94% 30.06 in 10.0 mi Calm Calm - N/A   Clear
4:55 AM 53.6 °F - 51.8 °F 94% 30.06 in 10.0 mi Calm Calm - N/A   Clear
5:15 AM 51.8 °F - 51.8 °F 100% 30.06 in 10.0 mi Calm Calm - N/A   Clear
5:35 AM 51.8 °F - 51.8 °F 100% 30.06 in 10.0 mi Calm Calm - N/A   Clear
5:55 AM 51.8 °F - 51.8 °F 100% 30.07 in 10.0 mi Calm Calm - N/A   Clear
6:55 AM 51.8 °F - 51.8 °F 100% 30.08 in 10.0 mi Calm Calm - N/A   Clear
7:55 AM 60.8 °F - 55.4 °F 82% 30.09 in 10.0 mi Calm Calm - N/A   Partly Cloudy
8:55 AM 64.4 °F - 55.4 °F 73% 30.10 in 10.0 mi Calm Calm - N/A   Partly Cloudy
9:55 AM 71.6 °F - 57.2 °F 60% 30.12 in 10.0 mi Calm Calm - N/A   Partly Cloudy
10:55 AM 78.8 °F - 59.0 °F 51% 30.11 in 10.0 mi Variable 3.5 mph - N/A   Partly Cloudy
11:55 AM 82.4 °F 81.4 °F 53.6 °F 37% 30.11 in 10.0 mi WSW 9.2 mph - N/A   Partly Cloudy
12:55 PM 84.2 °F 82.8 °F 53.6 °F 35% 30.10 in 10.0 mi Variable 4.6 mph - N/A   Partly Cloudy
1:55 PM 84.2 °F 82.8 °F 53.6 °F 35% 30.08 in 10.0 mi SW 5.8 mph - N/A   Partly Cloudy
2:55 PM 87.8 °F 85.7 °F 53.6 °F 31% 30.07 in 10.0 mi Variable 4.6 mph - N/A   Partly Cloudy
3:55 PM 86.0 °F 84.2 °F 53.6 °F 33% 30.06 in 10.0 mi SE 5.8 mph - N/A   Partly Cloudy
4:55 PM 86.0 °F 84.5 °F 55.4 °F 35% 30.06 in 10.0 mi Calm Calm - N/A   Partly Cloudy
5:55 PM 86.0 °F 84.5 °F 55.4 °F 35% 30.06 in 10.0 mi Calm Calm - N/A   Partly Cloudy
6:55 PM 71.6 °F - 62.6 °F 73% 30.06 in 10.0 mi Calm Calm - N/A   Partly Cloudy
7:55 PM 71.6 °F - 57.2 °F 60% 30.06 in 10.0 mi Calm Calm - N/A   Clear
8:55 PM 66.2 °F - 60.8 °F 83% 30.08 in 10.0 mi Calm Calm - N/A   Clear
9:55 PM 62.6 °F - 59.0 °F 88% 30.08 in 10.0 mi East 3.5 mph - N/A   Clear
10:55 PM 62.6 °F - 59.0 °F 88% 30.08 in 10.0 mi Calm Calm - N/A   Clear
11:55 PM 62.6 °F - 60.8 °F 94% 30.09 in 10.0 mi Calm Calm - N/A   Clear